Temp
-14 -14 -13 -13 -13 -13 -13 -13 -12 -12 -12 -12 -12 -12 -11 -11 -11 -11 -11 -11 -11 -10 -10 -10 -11 -11 -11 -10 -10 -10 -10 -10 -9 -9 -10 -10 -10 -10 -11 -12 -11 -11 -11
-14 -13 -13 -13 -13 -13 -12 -12 -12 -12 -12 -12 -11 -11 -11 -11 -11 -11 -11 -11 -11 -11 -11 -11 -11 -11 -11 -11 -10 -9 -9 -10 -10 -9 -9 -10 -10 -10 -11 -12 -11 -11 -11
-14 -14 -13 -13 -12 -12 -12 -12 -12 -12 -11 -12 -11 -11 -11 -11 -11 -11 -11 -11 -11 -11 -11 -11 -11 -11 -11 -11 -11 -11 -10 -10 -10 -10 -9 -10 -10 -10 -11 -11 -11 -11 -11
-13 -13 -13 -12 -12 -12 -12 -12 -12 -12 -11 -11 -11 -11 -11 -11 -11 -10 -10 -11 -11 -11 -11 -11 -11 -11 -12 -12 -12 -11 -11 -10 -10 -10 -10 -10 -10 -10 -11 -11 -11 -11 -10
-13 -13 -13 -12 -12 -12 -12 -12 -12 -11 -11 -11 -11 -11 -11 -11 -11 -11 -11 -11 -11 -11 -11 -11 -11 -12 -12 -12 -12 -12 -11 -11 -11 -10 -10 -10 -10 -11 -11 -12 -12 -12 -11
-13 -13 -13 -13 -13 -12 -12 -12 -12 -12 -11 -11 -11 -11 -11 -11 -11 -11 -11 -11 -11 -11 -12 -12 -11 -11 -12 -12 -12 -12 -12 -12 -11 -11 -10 -10 -10 -11 -11 -11 -12 -11 -11
-13 -13 -13 -13 -12 -12 -12 -12 -11 -10 -10 -11 -11 -11 -11 -12 -12 -13 -13 -13 -14 -14 -14 -14 -14 -14 -14 -14 -15 -14 -13 -12 -12 -11 -10 -10 -10 -11 -12 -12 -12 -12 -12
-14 -13 -13 -13 -12 -12 -12 -11 -11 -11 -11 -11 -11 -12 -12 -13 -13 -14 -14 -15 -17 -16 -16 -16 -15 -15 -15 -15 -16 -15 -14 -13 -12 -12 -11 -11 -11 -12 -12 -12 -12 -12 -12
-14 -13 -13 -12 -12 -12 -12 -11 -11 -11 -11 -12 -12 -13 -14 -15 -15 -15 -16 -16 -16 -16 -16 -16 -17 -17 -17 -17 -17 -16 -16 -14 -12 -12 -11 -12 -13 -12 -12 -12 -12 -12 -12
-14 -13 -13 -12 -12 -12 -12 -11 -11 -11 -12 -13 -13 -15 -16 -17 -17 -17 -17 -17 -18 -18 -18 -18 -18 -18 -18 -18 -17 -17 -17 -16 -14 -13 -12 -14 -13 -13 -12 -13 -12 -12 -12
-13 -13 -13 -12 -12 -12 -11 -11 -11 -12 -13 -14 -16 -17 -17 -18 -19 -19 -19 -18 -18 -18 -19 -18 -18 -18 -18 -18 -17 -17 -16 -17 -15 -14 -14 -15 -14 -13 -13 -13 -12 -11 -12
-14 -13 -13 -12 -12 -12 -11 -11 -12 -12 -14 -15 -16 -17 -18 -19 -19 -19 -18 -18 -18 -19 -19 -18 -18 -18 -17 -17 -17 -17 -17 -16 -15 -15 -15 -15 -15 -14 -14 -13 -12 -13 -12
-14 -13 -13 -13 -12 -12 -12 -12 -12 -13 -14 -16 -17 -18 -18 -19 -19 -19 -18 -18 -18 -18 -18 -18 -18 -17 -17 -16 -16 -16 -16 -16 -16 -15 -15 -15 -15 -14 -14 -13 -13 -12 -12
-14 -14 -13 -13 -13 -12 -12 -12 -13 -14 -15 -16 -17 -17 -17 -18 -18 -17 -17 -17 -17 -17 -17 -17 -16 -16 -17 -17 -16 -16 -16 -16 -15 -15 -15 -15 -14 -14 -14 -13 -13 -13 -12
-14 -14 -14 -13 -13 -13 -13 -13 -14 -14 -15 -16 -16 -16 -16 -16 -16 -16 -16 -16 -16 -16 -16 -16 -15 -15 -15 -16 -16 -16 -16 -15 -15 -15 -15 -15 -14 -14 -14 -13 -13 -13 -13
-14 -14 -14 -13 -14 -13 -13 -14 -14 -15 -15 -15 -15 -15 -15 -14 -15 -15 -15 -15 -15 -15 -15 -16 -15 -15 -15 -16 -16 -15 -15 -15 -15 -15 -15 -15 -14 -14 -14 -12 -12 -12 -12
-14 -14 -14 -14 -14 -14 -13 -14 -14 -15 -16 -16 -15 -15 -14 -14 -14 -14 -14 -14 -14 -14 -15 -15 -15 -15 -15 -15 -15 -15 -14 -15 -14 -14 -14 -14 -14 -12 -13 -13 -12 -12 -13
-14 -14 -14 -14 -14 -14 -14 -14 -14 -15 -15 -16 -15 -15 -14 -14 -14 -14 -13 -14 -14 -14 -14 -14 -14 -15 -15 -15 -15 -15 -15 -15 -14 -14 -14 -13 -13 -13 -13 -13 -14 -15 -16
-14 -14 -15 -14 -14 -14 -14 -14 -14 -14 -15 -15 -15 -15 -14 -14 -13 -14 -14 -14 -14 -15 -15 -15 -14 -15 -15 -15 -15 -14 -14 -14 -14 -14 -13 -14 -14 -15 -16 -16 -15 -16 -16
-15 -15 -15 -15 -15 -15 -14 -14 -15 -14 -14 -15 -15 -16 -15 -14 -14 -14 -15 -15 -15 -15 -15 -15 -15 -14 -15 -14 -15 -15 -15 -14 -14 -15 -16 -16 -16 -15 -15 -15 -16 -16 -15
-15 -15 -15 -15 -15 -15 -15 -15 -15 -15 -14 -15 -15 -15 -15 -14 -15 -14 -14 -14 -15 -15 -14 -15 -14 -15 -15 -15 -15 -15 -16 -16 -17 -16 -16 -17 -17 -17 -16 -16 -16 -16 -16
-16 -16 -15 -15 -15 -15 -15 -15 -15 -15 -15 -15 -15 -15 -15 -15 -15 -15 -15 -15 -15 -16 -16 -15 -15 -15 -15 -15 -15 -14 -15 -16 -17 -17 -17 -17 -16 -16 -16 -16 -16 -16 -15
-16 -16 -16 -16 -15 -15 -15 -15 -15 -15 -15 -15 -15 -15 -15 -15 -15 -15 -15 -15 -15 -15 -15 -16 -16 -16 -15 -15 -15 -15 -15 -15 -16 -16 -16 -16 -16 -16 -16 -16 -16 -15 -15
-16 -16 -16 -16 -16 -16 -16 -15 -16 -16 -15 -16 -16 -16 -16 -16 -16 -16 -16 -15 -15 -15 -15 -16 -16 -17 -16 -16 -16 -16 -16 -16 -16 -16 -16 -17 -16 -16 -16 -16 -16 -16 -16
-17 -17 -17 -17 -16 -16 -16 -16 -16 -16 -16 -16 -16 -16 -16 -16 -16 -16 -16 -16 -16 -16 -15 -15 -16 -16 -16 -17 -16 -16 -16 -16 -16 -16 -16 -16 -16 -16 -16 -16 -16 -16 -16
-17 -17 -17 -17 -17 -17 -17 -16 -16 -16 -16 -16 -16 -16 -16 -16 -16 -16 -16 -16 -16 -16 -16 -16 -16 -16 -16 -17 -17 -17 -17 -16 -16 -16 -16 -16 -16 -16 -16 -16 -16 -16 -16
Height
5715 5714 5712 5711 5709 5708 5706 5703 5701 5699 5700 5699 5697 5696 5693 5693 5692 5690 5690 5687 5686 5687 5688 5687 5689 5689 5691 5692 5693 5700 5704 5706 5709 5712 5715 5718 5720 5723 5727 5732 5736 5737 5744
5703 5701 5699 5698 5696 5694 5693 5691 5689 5687 5686 5684 5681 5679 5678 5677 5675 5674 5671 5670 5670 5671 5670 5669 5671 5671 5673 5676 5678 5682 5688 5693 5695 5699 5701 5705 5711 5713 5716 5720 5721 5726 5731
5692 5690 5688 5686 5686 5684 5682 5680 5678 5675 5673 5670 5668 5666 5663 5660 5657 5654 5653 5652 5651 5651 5651 5651 5652 5651 5654 5657 5661 5664 5670 5677 5683 5686 5687 5690 5696 5701 5705 5708 5711 5713 5719
5681 5679 5677 5676 5675 5673 5670 5669 5667 5664 5661 5657 5654 5650 5646 5641 5637 5633 5630 5628 5627 5626 5625 5627 5628 5629 5631 5635 5639 5644 5650 5657 5665 5671 5673 5677 5682 5688 5691 5695 5701 5705 5707
5670 5669 5668 5667 5665 5663 5661 5658 5655 5652 5647 5642 5636 5631 5625 5619 5613 5608 5604 5600 5598 5596 5597 5598 5600 5603 5606 5610 5617 5622 5629 5636 5645 5652 5657 5663 5670 5674 5680 5685 5688 5691 5694
5661 5660 5660 5658 5656 5654 5652 5648 5644 5640 5635 5628 5620 5611 5603 5595 5587 5579 5572 5569 5565 5564 5563 5563 5566 5571 5576 5583 5592 5600 5608 5617 5626 5632 5641 5648 5655 5662 5667 5673 5678 5682 5685
5653 5653 5652 5650 5648 5645 5642 5638 5632 5624 5615 5606 5597 5586 5577 5566 5556 5548 5539 5533 5530 5531 5533 5534 5537 5542 5547 5554 5564 5575 5584 5596 5607 5615 5625 5632 5639 5647 5655 5661 5666 5672 5677
5646 5645 5644 5642 5639 5636 5632 5625 5616 5607 5598 5588 5577 5565 5553 5541 5531 5524 5516 5507 5504 5505 5506 5508 5511 5516 5521 5529 5539 5550 5561 5575 5589 5598 5608 5615 5625 5632 5642 5649 5655 5661 5666
5639 5638 5636 5634 5630 5627 5620 5611 5602 5593 5582 5569 5556 5543 5529 5517 5510 5504 5499 5495 5491 5486 5483 5483 5486 5491 5498 5506 5517 5530 5542 5554 5566 5578 5589 5598 5610 5620 5630 5638 5644 5651 5658
5632 5630 5628 5625 5622 5616 5608 5599 5589 5577 5566 5553 5540 5525 5511 5501 5495 5491 5487 5485 5480 5477 5474 5474 5475 5479 5482 5490 5501 5514 5526 5538 5549 5560 5571 5583 5594 5607 5618 5627 5640 5644 5650
5624 5623 5621 5618 5613 5605 5596 5586 5576 5565 5553 5543 5529 5515 5500 5491 5486 5482 5478 5476 5474 5473 5472 5471 5470 5473 5478 5483 5493 5503 5518 5528 5536 5546 5558 5570 5581 5595 5607 5617 5627 5637 5639
5618 5616 5614 5609 5603 5595 5586 5577 5567 5557 5546 5536 5524 5512 5499 5490 5483 5479 5475 5472 5470 5470 5470 5469 5470 5471 5475 5481 5487 5498 5510 5519 5525 5535 5547 5559 5571 5585 5598 5609 5618 5626 5628
5611 5609 5605 5600 5594 5586 5579 5569 5560 5551 5541 5533 5524 5512 5502 5494 5487 5480 5477 5474 5472 5471 5470 5468 5469 5471 5475 5480 5486 5493 5502 5510 5519 5530 5541 5554 5567 5579 5590 5600 5607 5613 5619
5604 5602 5598 5594 5588 5581 5573 5564 5555 5547 5540 5533 5525 5515 5506 5498 5491 5487 5483 5479 5476 5473 5471 5470 5471 5473 5477 5481 5487 5493 5499 5507 5518 5529 5540 5551 5562 5572 5582 5591 5599 5606 5612
5598 5596 5593 5589 5583 5575 5569 5560 5553 5544 5538 5532 5525 5517 5509 5504 5498 5492 5486 5481 5478 5474 5471 5472 5474 5475 5481 5485 5490 5496 5503 5510 5518 5528 5538 5549 5559 5568 5576 5585 5592 5599 5604
5592 5590 5586 5583 5578 5572 5564 5557 5551 5543 5537 5532 5526 5519 5512 5506 5501 5494 5489 5487 5483 5479 5479 5480 5481 5482 5486 5489 5493 5500 5506 5514 5523 5531 5540 5549 5558 5566 5572 5576 5585 5593 5600
5586 5584 5580 5578 5573 5568 5561 5555 5549 5543 5537 5532 5528 5521 5515 5508 5503 5498 5493 5491 5489 5487 5488 5487 5490 5490 5492 5494 5499 5504 5513 5520 5527 5536 5545 5551 5555 5563 5569 5575 5581 5589 5597
5580 5577 5575 5573 5570 5565 5559 5554 5548 5542 5538 5534 5529 5524 5519 5514 5510 5506 5503 5501 5499 5497 5495 5496 5495 5498 5500 5502 5506 5513 5520 5524 5527 5533 5540 5547 5553 5559 5565 5572 5579 5587 5597
5574 5572 5570 5568 5565 5562 5558 5552 5548 5542 5539 5536 5531 5527 5524 5520 5517 5514 5512 5509 5507 5507 5506 5505 5505 5505 5507 5510 5513 5514 5521 5527 5530 5536 5543 5547 5551 5557 5564 5571 5579 5589 5600
5570 5567 5565 5562 5560 5557 5555 5551 5546 5542 5539 5537 5534 5530 5527 5524 5521 5520 5518 5517 5515 5514 5512 5512 5510 5510 5511 5514 5516 5520 5524 5528 5533 5539 5544 5550 5557 5564 5569 5576 5582 5592 5600
5565 5564 5561 5558 5555 5552 5551 5549 5545 5541 5538 5536 5534 5532 5530 5528 5525 5524 5524 5523 5522 5520 5518 5518 5520 5519 5519 5521 5523 5526 5530 5535 5540 5544 5549 5555 5560 5566 5573 5579 5585 5594 5602
5560 5558 5556 5554 5551 5548 5546 5544 5542 5539 5536 5534 5532 5531 5528 5529 5529 5526 5525 5525 5525 5524 5525 5526 5527 5528 5529 5530 5531 5533 5537 5541 5546 5549 5554 5560 5565 5571 5577 5582 5589 5595 5601
5555 5553 5551 5548 5546 5544 5542 5539 5537 5535 5534 5532 5530 5529 5527 5526 5527 5527 5526 5526 5526 5526 5526 5528 5531 5533 5534 5536 5538 5540 5542 5546 5549 5553 5558 5563 5568 5573 5578 5583 5588 5594 5599
5549 5547 5545 5542 5540 5538 5536 5534 5532 5530 5527 5527 5526 5524 5524 5523 5522 5522 5523 5524 5526 5527 5528 5530 5531 5533 5536 5538 5539 5542 5545 5548 5551 5555 5560 5564 5569 5573 5578 5583 5587 5592 5597
5542 5540 5538 5536 5534 5532 5530 5527 5525 5524 5522 5520 5520 5519 5518 5518 5518 5518 5519 5520 5522 5524 5526 5528 5529 5532 5533 5536 5542 5546 5547 5551 5554 5556 5560 5565 5568 5572 5577 5581 5585 5590 5594
5536 5533 5531 5529 5527 5525 5523 5520 5518 5516 5515 5514 5512 5512 5511 5510 5510 5512 5513 5514 5515 5518 5520 5523 5526 5529 5531 5535 5538 5541 5544 5549 5553 5557 5560 5563 5567 5570 5573 5578 5583 5587 5591
Wind_Speed
41 42 43 43 44 46 46 44 45 43 44 46 48 49 50 54 58 61 62 61 61 61 63 62 63 62 62 61 58 55 53 54 49 48 49 44 44 50 44 43 51 50 46
39 41 41 41 42 41 42 39 40 44 47 50 50 48 49 50 53 56 58 61 63 64 65 65 64 66 66 64 63 62 58 52 52 50 49 49 44 42 46 43 42 47 44
37 37 37 38 39 36 39 42 44 45 43 43 46 50 54 59 62 63 65 66 68 69 70 71 72 72 70 69 67 66 63 60 56 56 55 53 49 44 41 44 39 41 43
35 34 36 34 34 37 36 36 38 40 43 48 52 55 58 61 65 69 71 73 74 76 77 77 77 77 76 74 71 70 70 67 61 57 58 54 52 50 44 40 41 38 37
33 33 30 32 34 32 34 37 40 44 47 51 56 61 67 71 75 78 81 82 84 85 85 86 85 83 80 79 75 72 71 67 63 60 60 57 54 51 46 37 38 37 34
31 29 29 30 31 33 36 40 42 47 52 58 64 69 73 77 81 85 88 88 87 86 83 83 84 84 83 84 80 75 71 67 61 61 59 57 57 51 47 43 38 41 38
27 28 26 28 30 34 37 41 48 54 59 65 70 74 76 76 78 77 76 80 82 77 71 68 68 71 73 70 76 73 72 67 61 59 54 57 58 50 46 42 42 41 38
27 24 25 27 30 33 40 47 52 58 63 67 68 69 72 69 66 65 61 56 52 54 58 60 61 61 64 63 69 69 68 65 59 54 52 53 50 47 48 45 43 44 43
21 21 24 25 29 37 43 49 55 59 65 63 64 66 65 58 55 48 43 41 44 45 46 47 48 51 57 59 63 67 63 61 57 54 54 55 53 47 45 43 47 42 36
20 19 21 25 32 37 45 51 55 61 59 54 58 58 51 43 36 33 30 32 28 22 24 26 28 31 39 45 53 57 62 52 54 53 54 55 55 51 47 42 42 38 35
16 16 20 26 32 40 47 51 55 54 48 48 47 44 35 26 22 22 21 21 22 22 18 18 19 26 27 34 41 46 45 45 46 44 47 48 49 54 49 46 41 42 36
13 15 21 26 34 40 45 49 50 42 42 39 39 36 30 20 14 12 10 14 14 13 14 16 16 17 23 28 32 37 42 41 42 43 44 47 50 49 47 48 39 43 35
13 16 22 27 34 39 44 45 41 35 38 33 34 29 27 23 21 20 14 10 6 5 10 11 17 21 22 23 28 35 41 41 39 44 46 46 45 45 49 46 44 41 34
13 16 22 26 32 37 41 41 31 35 33 30 26 28 31 25 20 16 17 10 7 11 7 11 18 17 18 27 31 34 31 40 41 39 39 40 47 50 49 46 41 37 31
14 17 22 24 29 34 35 31 30 32 28 25 23 23 24 23 16 12 17 8 10 13 9 13 12 14 12 20 28 29 31 33 35 37 41 46 48 45 44 39 38 34 32
17 19 21 21 25 31 31 27 25 29 29 24 24 23 26 25 20 21 14 11 10 8 10 10 10 10 16 22 25 27 32 36 37 38 36 38 39 37 33 43 49 46 51
18 18 19 17 22 26 28 26 22 24 26 24 17 21 23 24 21 17 16 12 7 8 7 10 14 15 14 18 26 26 22 44 32 33 31 35 35 42 45 47 55 53 45
17 16 15 16 17 21 25 24 19 17 22 18 15 17 23 23 18 16 19 21 18 14 12 8 10 15 20 25 28 33 31 27 21 38 45 39 44 45 44 51 45 33 27
12 13 14 14 15 17 20 21 18 12 15 12 10 10 15 14 14 16 12 11 14 15 10 5 15 24 18 20 16 16 20 16 22 32 35 37 41 39 37 36 33 32 28
7 10 13 14 15 16 16 17 17 12 12 11 5 6 8 11 13 12 11 9 13 11 8 5 4 25 27 20 19 17 16 32 36 34 31 31 29 29 29 28 28 28 28
10 10 11 13 15 15 16 15 16 13 9 11 8 5 4 1 4 5 6 4 7 10 14 14 12 16 24 25 26 28 30 30 28 28 28 29 29 22 21 24 26 23 20
13 14 14 13 15 16 14 14 14 12 12 9 9 11 10 10 12 14 12 6 4 0 1 3 7 9 14 16 22 22 17 17 18 20 19 19 20 21 20 19 19 21 22
16 16 16 15 15 15 16 15 14 14 11 10 10 10 13 13 13 10 7 12 8 8 7 7 8 9 10 11 15 18 21 22 22 22 22 23 24 25 25 25 25 25 26
19 18 18 17 17 17 17 17 16 15 16 15 12 11 12 15 16 15 14 15 19 16 13 14 13 13 13 16 18 20 22 24 25 26 28 30 30 31 31 31 30 29 29
21 22 22 22 20 20 20 20 19 19 18 18 16 14 13 13 18 21 21 23 21 25 22 18 16 17 21 24 21 18 21 22 23 24 25 26 27 28 29 29 30 30 29
24 24 25 25 24 23 22 21 21 22 21 20 20 20 18 17 17 21 26 28 27 29 34 32 32 29 29 28 28 28 27 26 24 23 25 26 26 28 29 29 30 30 30
Wind_Direction
272 272 271 271 274 277 279 280 280 275 272 271 270 267 265 264 264 266 267 269 270 270 270 269 269 269 270 270 270 266 263 263 263 264 263 263 265 264 262 262 272 275 266
278 276 276 277 278 280 281 280 282 282 282 282 280 277 274 273 274 276 277 275 273 272 272 271 271 271 270 269 268 267 264 258 260 261 262 261 260 263 259 254 256 268 268
276 277 276 278 281 279 279 280 281 282 281 280 279 277 276 276 276 276 275 273 271 269 267 266 267 267 267 267 266 266 264 260 256 257 259 260 259 260 261 255 250 255 255
279 278 280 279 278 283 286 285 286 285 287 286 284 282 281 280 279 278 277 276 274 272 271 269 267 266 266 265 264 264 263 261 255 254 254 255 256 256 259 255 246 249 255
281 283 280 282 288 287 289 292 290 289 289 290 291 290 287 284 282 280 278 277 275 273 270 268 266 263 261 260 258 258 258 257 256 252 250 252 252 251 253 254 243 245 246
283 280 285 289 289 290 291 293 295 294 291 288 286 286 286 286 284 283 281 279 276 273 269 266 263 260 258 256 255 253 253 251 252 251 249 248 249 247 246 250 240 243 242
280 284 282 288 290 292 296 296 295 294 295 296 297 295 295 293 290 287 286 282 275 271 269 266 263 260 255 252 247 243 245 247 245 247 247 246 245 241 237 241 235 237 247
282 277 287 290 293 298 297 299 301 301 300 301 301 300 298 293 288 287 291 290 279 273 266 261 259 256 253 246 240 238 237 239 241 240 240 239 235 231 230 229 228 234 241
271 280 285 292 299 301 304 302 303 305 308 309 307 307 302 296 293 289 289 288 287 281 271 262 256 248 243 239 231 231 233 231 227 229 229 229 225 227 227 223 223 228 236
272 280 291 300 304 305 305 308 310 313 314 314 315 312 306 297 298 299 297 294 292 277 270 259 248 240 236 229 226 228 229 227 223 220 222 225 221 218 218 213 219 224 231
274 289 298 305 308 311 312 315 317 319 320 326 330 329 325 318 312 301 289 287 284 279 272 266 252 234 237 227 224 225 219 217 213 213 218 217 210 210 216 214 209 230 226
275 294 304 310 314 314 318 322 322 322 330 339 338 343 353 350 2 352 331 313 298 285 268 265 249 236 218 214 212 211 207 210 204 206 203 204 203 203 207 206 208 222 219
283 299 313 314 315 316 327 325 327 327 341 341 349 358 5 5 21 14 6 1 348 286 272 244 221 209 211 205 199 198 199 197 192 193 192 192 191 199 201 202 207 210 214
293 309 313 316 319 322 331 330 332 331 343 349 357 15 16 21 25 39 32 30 334 349 295 222 196 200 194 183 179 183 181 183 184 186 184 187 190 191 195 198 203 209 209
297 303 310 317 326 330 335 335 334 332 339 348 1 15 22 16 13 356 350 341 337 334 319 195 191 207 188 200 173 171 173 176 180 181 182 183 188 196 195 202 208 212 213
295 301 309 318 330 335 340 340 337 340 344 349 2 21 14 6 357 350 340 344 19 27 69 66 127 162 176 178 176 161 170 168 166 169 182 189 190 195 201 214 204 204 198
291 297 305 315 330 339 344 346 339 342 351 353 5 21 26 15 17 21 18 28 47 96 90 25 179 182 186 181 170 175 184 179 167 184 193 199 193 212 215 210 197 192 176
289 296 299 307 326 338 346 345 347 332 347 357 8 41 40 38 34 27 35 52 56 42 38 56 87 157 174 178 176 171 185 199 209 193 187 205 220 216 196 182 167 151 147
295 297 292 300 314 329 341 345 349 332 342 2 353 35 37 36 28 38 36 40 40 36 30 351 138 147 173 189 206 173 174 198 224 196 198 187 166 148 144 148 152 155 160
296 303 301 298 306 315 331 344 347 346 328 346 324 356 26 21 11 23 36 34 21 12 357 13 298 188 178 186 188 195 191 186 173 163 141 143 147 155 156 157 154 158 167
297 296 303 313 309 309 310 323 338 342 329 318 314 262 240 10 357 351 16 16 19 48 67 82 36 152 167 165 160 149 137 143 146 151 157 162 163 155 156 162 162 167 178
298 299 300 300 300 306 310 314 314 324 330 309 297 285 289 256 253 277 279 254 213 85 50 101 125 141 146 145 146 148 145 141 145 143 147 151 155 163 167 168 170 174 181
296 294 294 296 296 296 299 302 304 309 305 317 306 278 260 261 247 231 230 228 246 233 258 209 159 179 192 197 183 170 165 162 162 166 171 173 173 177 179 182 185 189 194
294 294 296 296 296 296 295 295 296 295 293 294 296 296 272 257 252 246 234 225 232 229 223 214 213 216 234 217 205 187 179 178 180 182 183 185 185 186 188 191 191 194 197
300 301 301 299 297 293 290 290 289 291 290 283 284 282 278 260 251 243 234 228 235 229 213 216 239 246 226 221 222 204 198 196 196 196 196 197 195 198 200 201 203 204 208
297 297 296 296 295 294 292 288 285 286 283 282 282 276 273 269 257 241 241 232 223 230 233 238 250 248 238 224 224 223 215 211 214 212 207 206 207 205 205 208 210 213 214